www.pogodaiklimat.ru

Погода и климат >> Архив погоды >> Россия >> Красноярский край >> Светлогорск


ПОГОДА в Светлогорске

  • Прогноз погоды в Светлогорске
  • Монитор погоды в Светлогорске

АРХИВ ПОГОДЫ в Светлогорске

Время (UTC), дата Ветер
(напр.,м/с)
 
Видим.   Явления Облачность Т
(С)
Тd
(С)
f
(%)
Тe
(С)
Тes
(С)
Комфортность P
(гПа)
Po
(гПа)
Тmin
(С)
Tmax
(С)
R
(мм)
R24
(мм)
S
(см)
21 16.03 СВ 2 н/о н/о -20.7 -24.9 69 -27 -27 1020.7 1006.9
00 17.03 СВ 3 н/о н/о -22.5 -26.1 72 -31 -31 опасность
обморожения
1022.3 1008.3 -25.6 123
03 17.03 СВ 1 н/о н/о -18.7 -24.8 59 -22 -22 1022.9 1009.1
06 17.03 СВ 3 н/о н/о -15.6 -22.8 54 -22 -22 1023.7 1010.1
09 17.03 СВ 3 н/о н/о -11.2 -19.8 49 -17 -17 1024.1 1010.7
12 17.03 В 3 н/о н/о -11.6 -19.2 53 -18 -18 1024.4 1011.0 -10.3
15 17.03 СВ 2 н/о н/о -17.6 -22.3 67 -23 -23 1025.3 1011.6
18 17.03 С 1 н/о н/о -19.4 -22.6 76 -22 -22 1025.7 1011.9
21 17.03 штиль 0 н/о н/о -18.5 -21.8 75 -19 -19 1025.8 1012.0
00 18.03 СВ 1 н/о н/о -23.0 -25.4 81 -26 -26 1026.8 1012.8 -23.0 123
03 18.03 СВ 1 н/о н/о -18.6 -23.8 64 -21 -21 1026.9 1013.1 -23.9
06 18.03 С 1 н/о н/о -13.8 -21.1 54 -16 -16 1026.8 1013.3
09 18.03 СВ 1 н/о н/о -10.5 -18.9 50 -13 -13 1026.5 1013.1
12 18.03 С 1 н/о н/о -17.9 -22.1 70 -21 -21 1026.8 1013.0 -9.5
15 18.03 СВ 2 н/о н/о -22.7 -25.2 80 -29 -29 1026.8 1012.8
18 18.03 СВ 1 н/о н/о -25.3 -28.1 77 -29 -29 1026.8 1012.6
21 18.03 С 1 н/о н/о -27.3 -30.4 75 -31 -31 опасность
обморожения
1026.6 1012.3
00 19.03 С 1 н/о н/о -25.9 -29.0 75 -30 -30 1026.1 1012.0 -27.5
03 19.03 СВ 1 н/о н/о -18.2 -21.5 75 -21 -21 1026.4 1012.7
06 19.03 СВ 1 н/о н/о -14.4 -20.6 59 -17 -17 1025.7 1012.1
09 19.03 СВ 1 н/о н/о -9.4 -17.5 52 -11 -11 1025.0 1011.7
12 19.03 штиль 0 н/о н/о -10.9 -16.3 64 -11 -11 1025.1 1011.7 -9.2
15 19.03 В 1 н/о н/о -13.0 -15.6 81 -15 -15 1025.3 1011.8
18 19.03 СВ 1 н/о н/о -13.2 -15.4 83 -16 -16 1024.9 1011.4
21 19.03 СВ 1 н/о н/о -12.6 -14.5 86 -15 -15 1024.7 1011.3
00 20.03 С 1 н/о н/о -13.2 -15.1 86 -16 -16 1024.0 1010.5 -15.4 2 118
03 20.03 Ю 1 н/о н/о -9.0 -11.5 82 -11 -11 1023.5 1010.3
06 20.03 Ю 2 н/о н/о -5.9 -8.9 79 -10 -10 1023.2 1010.1
09 20.03 Ю 1 н/о н/о -4.4 -7.3 80 -7 -7 1022.6 1009.6
12 20.03 СВ 1 н/о н/о -6.1 -8.1 86 -8 -8 1021.8 1008.7 -4.3 1
15 20.03 Ю 4 н/о н/о -4.7 -6.8 85 -11 -11 1020.0 1007.1
18 20.03 Ю 5 н/о н/о -4.5 -6.8 84 -12 -12 1017.5 1004.5
21 20.03 Ю 6-10
{11}
н/о н/о -4.3 -6.6 84 -12 -12 1014.1 1001.2
00 21.03 Ю 7-12
{12}
н/о н/о -3.7 -5.9 85 -12 -12 1009.8 997.0 -6.2 2 118
03 21.03 Ю 5
{12}
н/о н/о -1.8 -5.5 76 -8 -8 1008.2 995.5
06 21.03 Ю 4
{12}
н/о н/о -1.5 -5.7 73 -7 -7 1006.2 993.5
09 21.03 ЮЗ 4
{10}
н/о н/о -2.7 -4.4 88 -9 -9 1005.9 993.2
12 21.03 ЮЗ 4 н/о н/о -3.1 -4.7 89 -9 -9 1005.5 992.7 -1.2 2
15 21.03 ЮЗ 3 н/о н/о -3.4 -4.9 89 -9 -9 1005.7 992.9
18 21.03 ЮЗ 3 н/о н/о -3.8 -5.3 89 -9 -9 1006.2 993.5
21 21.03 ЮЗ 3 н/о н/о -3.5 -4.9 90 -9 -9 1006.2 993.4
00 22.03 ЮЗ 2 н/о н/о -3.6 -4.6 93 -8 -8 1006.1 993.3 -3.9 2 117
06 22.03 ЮЗ 3 н/о н/о -1.6 -3.3 88 -7 -7 1006.0 993.4
09 22.03 З 4 н/о н/о -1.5 -4.1 82 -7 -7 1007.4 994.7
12 22.03 З 2 н/о н/о -2.2 -4.3 85 -6 -6 1008.7 996.0 -0.7 0.8
15 22.03 СЗ 2 н/о н/о -10.0 -11.2 91 -15 -15 1010.7 997.6
18 22.03 СВ 2 н/о н/о -15.1 -17.0 85 -20 -20 1012.4 999.0
21 22.03 СВ 1 н/о н/о -18.4 -20.5 83 -21 -21 1013.9 1000.3
00 23.03 СВ 2 н/о н/о -22.3 -25.1 78 -29 -29 1015.4 1001.5 -24.1 0.0 117
03 23.03 СВ 2 н/о н/о -13.6 -15.9 83 -18 -18 1016.3 1002.9
06 23.03 СВ 2 н/о н/о -10.1 -16.2 61 -14 -14 1016.8 1003.6
09 23.03 СВ 2 н/о н/о -7.1 -13.9 58 -11 -11 1016.9 1003.8
12 23.03 В 2 н/о н/о -7.6 -13.4 63 -12 -12 1016.9 1003.8 -7.1
15 23.03 В 2 н/о н/о -8.7 -13.1 70 -13 -13 1016.9 1003.8

 

Местоположение метеостанции Светлогорск (Красноярский край, Россия): широта 66.95 долгота 88.42 высота над уровнем моря 101 м.

В архиве по умолчанию представлена погода в Светлогорске за последнюю неделю. Архивные данные за месяц целиком и за предыдущие месяцы, начиная с января 2011 года, Вы можете получить, выбрав интересующий диапазон дат из раскрывающегося списка и нажав кнопку "Ввод!".


*Определитесь, кто Вы:
робот инопланетянин человек

Внимание! Время в таблицах - всемирное. Для получения местного времени необходимо прибавить поправку, которая равна 7 ч.

Смотрите также архив погоды в соседних городах и на ближайших метеорологических станциях:

Погода в Горбиачине (Красноярский край, Россия) (64 км)
Погода в Курейке (Красноярский край, Россия) (75 км)
Погода в Игарке (Красноярский край, Россия) (98 км)
Погода в Снежногорске (Красноярский край, Россия) (131 км)
Погода в Туруханске (Красноярский край, Россия) (132 км)
Погода в Большом Пороге (Эвенкия, Россия) (164 км)
Погода в Советской Речке (Красноярский край, Россия) (202 км)
Погода в Потапово (Красноярский край, Россия) (212 км)
Погода в Агате (Эвенкия, Россия) (220 км)
Погода в Норильске (Красноярский край, Россия) (265 км)

Пояснения к столбцам:

Ветер - указаны скорость ветра в м/с - средняя за 10 мин, порывы в срок и между сроками (в фигурных скобках) и направление, откуда дует ветер: С - северный, СВ - северо-восточный, В - восточный, ЮВ - юго-восточный, Ю - южный, ЮЗ - юго-западный, З - западный, СЗ - северо-западный.
Видимость - горизонтальная дальность видимости в метрах или километрах. При видимости от 1 до 10 км при отсутствии осадков обычно наблюдается дымка, при ухудшении видимости до 1 км и менее - туман. В сухую погоду видимость может ухудшаться дымом, пылью или мглою.
Явления - указаны атмосферные явления, наблюдавшиеся в срок или в последний час перед сроком; фигурными скобками обозначены явления, наблюдавшиеся между сроками (за 1-3 часа до срока); квадратными скобками обозначены град или гололедные отложения с указанием их диаметра в мм.
Облачность - указаны через наклонную черту общая и нижняя облачность в баллах и высота нижней границы облаков в метрах; квадратными скобками обозначены формы облаков: Ci - перистые, Cs - перисто-слоистые, Cc - перисто-кучевые, Ac - высококучевые, As - высокослоистые, Sc - слоисто-кучевые, Ns - слоисто-дождевые, Cu - кучевые, Cb - кучево-дождевые. Подробнее классификацию облаков см. в Атласе облаков (PDF).
T - Температура воздуха - температура, измеренная на высоте 2 м над землей.
Td - Температура точки росы - температура, при понижении до которой содержащийся в воздухе водяной пар достигнет насыщения.
f - Относительная влажность воздуха - влажноcть воздуха, измеренная на высоте 2 м над землей.
Te - Эффективная температура - температура, которую ощущает одетый по сезону человек в тени. Характеристика душности погоды. При расчете учитывается влияние влажности воздуха и скорости ветра на теплоощущения человека.
Tes - Эффективная температура на солнце - температура, которую ощущает человек, с поправкой на солнечный нагрев. Характеристика знойности погоды. Зависит от высоты солнца над горизонтом, облачности и скорости ветра. Ночью, в пасмурную погоду, а также при ветре 12 м/с и более поправка равна нулю.
P - Атмосферное давление - приведенное к уровню моря атмосферное давление.
Po - Атмосферное давление - измеренное на уровне метеостанции атмосферное давление.
Tmin - Минимальная температура - минимум температуры воздуха на высоте 2 м над землей.
Tmax - Максимальная температура - максимум температуры воздуха на высоте 2 м над землей.
R - Количество осадков - Количество выпавших осадков за период времени, мм. При наведении курсора мыши на число - период времени, за который выпало указанное количество осадков.
R24 - Количество осадков - Количество выпавших осадков за 24 часа, мм.
S - Снежный покров - Высота снежного покрова, см. При наведении курсора мыши на число - состояние снежного покрова и степень покрытия местности в баллах.